Charleston, WV

4:04 PM EDT on June 27, 2017 (GMT -0400)
Yeager Airport

Weather History for KCRW - May, 2014

Change the Weather History Date:

Saturday, May 31, 2014

  Actual Average Record
Temperature  
Mean Temperature 69 °F 68 °F  
Max Temperature 84 °F 78 °F 96 °F (1931)
Min Temperature 53 °F 57 °F 38 °F (1966)
Degree Days  
Heating Degree Days 0 2  
Month to date heating degree days 87 117  
Since 1 July heating degree days 4773 4465  
Cooling Degree Days 4 4  
Month to date cooling degree days 103 78  
Year to date cooling degree days 121 110  
Growing Degree Days 18 (Base 50)    
Moisture  
Dew Point 55 °F    
Average Humidity 66    
Maximum Humidity 100    
Minimum Humidity 31    
Precipitation  
Precipitation 0.00 in 0.17 in 1.01 in (2010)
Month to date precipitation 2.37 4.80  
Year to date precipitation 16.12 18.14  
Snow  
Snow 0.00 in - - ()
Month to date snowfall 0.0  
Since 1 September snowfall 51.7  
Snow Depth 0.00 in    
Sea Level Pressure  
Sea Level Pressure 30.14 in    
Wind  
Wind Speed 3 mph (NNE)    
Max Wind Speed 12 mph    
Max Gust Speed 16 mph    
Visibility 9 miles    
Events Fog    
T = Trace of Precipitation, MM = Missing Value Source: NWS Daily Summary

Daily Weather History Graph

Daily Weather History Graph

Search for Another Location

Airport or City:

Trip Planner

Search our weather history database for the weather conditions in past years. The results will help you decide how hot, cold, wet, or windy it might be!

Date:

Astronomy

May. 31, 2014 Rise Set
Actual Time 6:04 AM EDT 8:43 PM EDT
Civil Twilight 5:33 AM EDT 9:14 PM EDT
Nautical Twilight 4:55 AM EDT 9:53 PM EDT
Astronomical Twilight 4:11 AM EDT 10:36 PM EDT
Moon 8:39 AM EDT (5/31) 11:02 PM EDT (5/31)
Length of Visible Light 15h 40m
Length of Day
14h 38m
Waxing Crescent, 8% of the Moon is Illuminated
May 31
Waxing Crescent
Jun 5
First Quarter
Jun 13
Full
Jun 19
Last Quarter
Jun 27
New

Hourly Weather History & Observations

Time (EDT) Temp. Heat Index Dew Point Humidity Pressure Visibility Wind Dir Wind Speed Gust Speed Precip Events Conditions
12:54 AM 59.0 °F - 57.9 °F 96% 30.14 in 10.0 mi Calm Calm - N/A   Clear
1:54 AM 57.9 °F - 57.0 °F 97% 30.14 in 10.0 mi Calm Calm - N/A   Clear
2:54 AM 57.0 °F - 55.9 °F 96% 30.13 in 10.0 mi Calm Calm - N/A   Clear
3:54 AM 54.0 °F - 54.0 °F 100% 30.13 in 6.0 mi Calm Calm - N/A   Clear
4:18 AM 55.0 °F - 55.0 °F 100% 30.15 in 0.5 mi Calm Calm - N/A Fog Fog
4:54 AM 55.0 °F - 55.0 °F 100% 30.14 in 0.1 mi NNE 3.5 mph - N/A Fog Fog
5:54 AM 54.0 °F - 54.0 °F 100% 30.15 in 5.0 mi Calm Calm - N/A   Scattered Clouds
6:54 AM 54.0 °F - 54.0 °F 100% 30.17 in 7.0 mi Calm Calm - N/A   Scattered Clouds
7:54 AM 57.0 °F - 57.0 °F 100% 30.18 in 9.0 mi Calm Calm - N/A   Partly Cloudy
8:54 AM 63.0 °F - 57.9 °F 84% 30.19 in 10.0 mi North 3.5 mph - N/A   Partly Cloudy
9:54 AM 70.0 °F - 57.9 °F 65% 30.18 in 10.0 mi North 4.6 mph - N/A   Partly Cloudy
10:54 AM 75.2 °F - 59.0 °F 57% 30.19 in 10.0 mi Variable 3.5 mph - N/A   Partly Cloudy
11:54 AM 79.0 °F - 52.0 °F 39% 30.17 in 10.0 mi SE 6.9 mph - N/A   Partly Cloudy
12:54 PM 81.0 °F 80.4 °F 53.1 °F 38% 30.15 in 10.0 mi North - - 0.00 in   Partly Cloudy
1:54 PM 82.0 °F - 48.0 °F 30% 30.14 in 10.0 mi North 4.6 mph - N/A   Partly Cloudy
2:54 PM 82.9 °F - 50.0 °F 32% 30.12 in 10.0 mi North 6.9 mph - N/A   Partly Cloudy
3:54 PM 82.9 °F - 52.0 °F 34% 30.11 in 10.0 mi ENE 4.6 mph - N/A   Clear
4:54 PM 82.9 °F - 51.1 °F 33% 30.09 in 10.0 mi NNE 6.9 mph - N/A   Partly Cloudy
5:54 PM 82.0 °F - 52.0 °F 35% 30.09 in 10.0 mi NE 10.4 mph - N/A   Clear
6:54 PM 81.0 °F - 52.0 °F 36% 30.10 in 10.0 mi North 6.9 mph - N/A   Clear
7:54 PM 78.1 °F - 53.1 °F 42% 30.10 in 10.0 mi NE 8.1 mph - N/A   Clear
8:54 PM 73.0 °F - 53.1 °F 49% 30.11 in 10.0 mi ENE 6.9 mph - N/A   Partly Cloudy
9:54 PM 69.1 °F - 57.0 °F 65% 30.12 in 10.0 mi NE 3.5 mph - N/A   Clear
10:54 PM 64.9 °F - 57.0 °F 75% 30.13 in 10.0 mi Calm Calm - N/A   Clear
11:54 PM 63.0 °F - 57.9 °F 84% 30.14 in 10.0 mi Calm Calm - N/A   Clear